This is the latest recevied weather packets stored in our database for station/object K0SNA. If no packets are shown the sender has not sent any weather packets the latest 10 day(s).
| Time | Temp. | Humidity | Pressure | Rain* | Wind** | Luminosity | Snow |
|---|---|---|---|---|---|---|---|
| 1777659978 | 9.44° C | 38% | 1019.3 hPa | 0 mm | - | 783 W/m² | - |
| 1777659675 | 10° C | 38% | 1019.5 hPa | 0 mm | - | 233 W/m² | - |
| 1777659372 | 10° C | 37% | 1019.5 hPa | 0 mm | - | 207 W/m² | - |
| 1777659068 | 10.56° C | 35% | 1019.3 hPa | 0 mm | - | 830 W/m² | - |
| 1777658767 | 10.56° C | 36% | 1019.3 hPa | 0 mm | - | 651 W/m² | - |
| 1777658462 | 9.44° C | 37% | 1019.2 hPa | 0 mm | - | 813 W/m² | - |
| 1777658159 | 10° C | 36% | 1019.4 hPa | 0 mm | - | 599 W/m² | - |
| 1777657856 | 10° C | 36% | 1019.3 hPa | 0 mm | - | 570 W/m² | - |
| 1777657553 | 10.56° C | 34% | 1019.4 hPa | 0 mm | - | 583 W/m² | - |
| 1777657251 | 10° C | 36% | 1019.7 hPa | 0 mm | - | 837 W/m² | - |
| 1777656948 | 10° C | 35% | 1019.8 hPa | 0 mm | - | 755 W/m² | - |
| 1777656644 | 9.44° C | 36% | 1019.6 hPa | 0 mm | - | 793 W/m² | - |
| 1777656339 | 10.56° C | 36% | 1019.4 hPa | 0 mm | - | 839 W/m² | - |
| 1777656035 | 10° C | 37% | 1019.5 hPa | 0 mm | - | 801 W/m² | - |
| 1777655732 | 10° C | 37% | 1019.4 hPa | 0 mm | - | 806 W/m² | - |
| 1777655428 | 9.44° C | 37% | 1019.5 hPa | 0 mm | - | 726 W/m² | - |
| 1777655125 | 9.44° C | 40% | 1019.6 hPa | 0 mm | - | 754 W/m² | - |
| 1777654823 | 9.44° C | 38% | 1019.6 hPa | 0 mm | - | 717 W/m² | - |
| 1777654521 | 9.44° C | 39% | 1019.6 hPa | 0 mm | - | 720 W/m² | - |
| 1777654218 | 8.89° C | 38% | 1019.5 hPa | 0 mm | - | 690 W/m² | - |
| 1777653915 | 8.89° C | 41% | 1019.7 hPa | 0 mm | - | 388 W/m² | - |
| 1777653612 | 8.89° C | 39% | 1019.6 hPa | 0 mm | - | 442 W/m² | - |
| 1777653309 | 8.89° C | 40% | 1019.7 hPa | 0 mm | - | 727 W/m² | - |
| 1777653005 | 8.89° C | 38% | 1019.7 hPa | 0 mm | - | 709 W/m² | - |
| 1777652702 | 8.33° C | 39% | 1019.7 hPa | 0 mm | - | 732 W/m² | - |
* Rain latest hour (hover to see other rain measurements)
** Current wind speed in m/s (hover to see current wind gust speed)